M I D A S
Marine Information and Data Acquisition System
Tripno 1807 of the Zeeleeuw from 2009-11-16 07:53:23 to 2009-11-16 16:18:57
Back to CruiseResearch ActivitiesStationsMapUnderway DataData graphs

EquipmentUnitsComments
TimeDGPSUTC
LatitudeDGPSDM.mWGS84
LongitudeDGPSDM.mWGS84
SpeedMeteo Stationm/sRelative wind speed
DirectionMeteo StationdegRelative wind direction
TemperatureMeteo Stationdeg CelciusAir temperature
PressureMeteo StationPaAtmospheric pressure
HumidityMeteo Station%Relative humidity
Missing or incorrect values are displayed as -999
Metereological data collected by the RV Zeeleeuw from 2009-11-16 07:36:09 to 2009-11-16 16:26:54
                                                                                    Next 1000 lines
Time Latitude Longitude Speed Direction Temperature Pressure Humidity
2009-11-16 07:36:20 51°13.662 2°55.954 3.9 352 10.6 100170 44
2009-11-16 07:36:25 51°13.663 2°55.951 2.8 358 10.6 100170 46
2009-11-16 07:36:29 51°13.664 2°55.947 1.3 358 10.6 100170 46
2009-11-16 07:36:35 51°13.665 2°55.943 0.3 360 10.7 100170 47
2009-11-16 07:36:41 51°13.667 2°55.937 1.5 349 10.7 100170 47
2009-11-16 07:36:47 51°13.668 2°55.931 0.7 355 10.7 100170 47
2009-11-16 07:36:52 51°13.67 2°55.925 1.9 351 10.6 100170 45
2009-11-16 07:36:58 51°13.671 2°55.918 3.3 354 10.7 100170 45
2009-11-16 07:37:04 51°13.673 2°55.911 2.2 2 10.7 100170 45
2009-11-16 07:37:08 51°13.674 2°55.907 1.4 359 10.7 100180 44
2009-11-16 07:37:13 51°13.675 2°55.9 1.8 350 10.7 100180 44
2009-11-16 07:37:19 51°13.677 2°55.893 1.5 358 10.7 100180 45
2009-11-16 07:37:24 51°13.678 2°55.886 1.1 358 10.7 100180 45
2009-11-16 07:37:28 51°13.679 2°55.881 0.7 358 10.7 100170 46
2009-11-16 07:37:33 51°13.68 2°55.874 0.6 2 10.7 100170 46
2009-11-16 07:37:39 51°13.681 2°55.866 2.8 10 10.7 100170 46
2009-11-16 07:37:44 51°13.682 2°55.859 1.1 7 10.7 100170 47
2009-11-16 07:37:48 51°13.683 2°55.853 2.9 4 10.6 100170 45
2009-11-16 07:37:53 51°13.684 2°55.846 2.7 11 10.6 100170 45
2009-11-16 07:37:59 51°13.685 2°55.838 3.4 13 10.6 100170 45
2009-11-16 07:38:04 51°13.686 2°55.831 4.4 13 10.7 100170 45
2009-11-16 07:38:09 51°13.687 2°55.824 4.4 9 10.7 100170 48
2009-11-16 07:38:13 51°13.687 2°55.818 2 5 10.7 100170 48
2009-11-16 07:38:19 51°13.688 2°55.81 0.5 8 10.7 100170 48
2009-11-16 07:38:24 51°13.688 2°55.803 2 14 10.7 100170 47
2009-11-16 07:38:28 51°13.688 2°55.797 2 8 10.7 100170 48
2009-11-16 07:38:33 51°13.688 2°55.79 1.6 20 10.7 100170 48
2009-11-16 07:38:39 51°13.688 2°55.782 1.9 31 10.7 100170 48
2009-11-16 07:38:44 51°13.688 2°55.776 1.9 38 10.7 100170 48
2009-11-16 07:38:48 51°13.688 2°55.771 3.4 26 10.7 100170 46
2009-11-16 07:38:53 51°13.687 2°55.765 4.2 26 10.7 100170 46
2009-11-16 07:38:59 51°13.687 2°55.759 4.4 27 10.7 100170 47
2009-11-16 07:39:04 51°13.686 2°55.754 2.5 35 10.7 100170 47
2009-11-16 07:39:08 51°13.686 2°55.751 3 22 10.7 100170 44
2009-11-16 07:39:13 51°13.686 2°55.747 3.2 11 10.7 100170 44
2009-11-16 07:39:18 51°13.686 2°55.745 4.3 23 10.7 100170 47
2009-11-16 07:39:23 51°13.686 2°55.743 4.3 25 10.7 100170 47
2009-11-16 07:39:28 51°13.686 2°55.742 4.6 25 10.7 100170 47
2009-11-16 07:39:32 51°13.687 2°55.742 5.8 31 10.7 100170 47
2009-11-16 07:39:37 51°13.687 2°55.741 6.1 36 10.7 100170 44
2009-11-16 07:39:42 51°13.688 2°55.741 3.5 40 10.7 100170 44
2009-11-16 07:39:47 51°13.689 2°55.741 2.7 42 10.7 100160 47
2009-11-16 07:39:52 51°13.691 2°55.741 3.4 26 10.7 100160 47
2009-11-16 07:39:57 51°13.692 2°55.741 2.8 36 10.7 100160 48
2009-11-16 07:40:01 51°13.693 2°55.741 2.5 31 10.7 100160 48
2009-11-16 07:40:06 51°13.694 2°55.742 2.2 30 10.7 100170 47
2009-11-16 07:40:11 51°13.696 2°55.741 2.7 32 10.7 100170 47
2009-11-16 07:40:16 51°13.698 2°55.741 2.7 32 10.7 100170 47
2009-11-16 07:40:21 51°13.7 2°55.741 1.4 31 10.7 100170 44
2009-11-16 07:40:26 51°13.703 2°55.74 0.2 37 10.7 100160 42
2009-11-16 07:40:31 51°13.706 2°55.739 0.1 78 10.7 100160 42
2009-11-16 07:40:36 51°13.709 2°55.738 -999 35 10.7 100160 42
2009-11-16 07:40:40 51°13.712 2°55.737 1.2 77 10.7 100160 47
2009-11-16 07:40:45 51°13.716 2°55.735 0.2 45 10.7 100160 46
2009-11-16 07:40:50 51°13.72 2°55.732 0.1 78 10.7 100160 46
2009-11-16 07:40:55 51°13.724 2°55.729 0.1 35 10.7 100160 48
2009-11-16 07:41:00 51°13.729 2°55.725 -999 78 10.7 100160 48
2009-11-16 07:41:05 51°13.734 2°55.72 -999 35 10.7 100160 46
2009-11-16 07:41:10 51°13.74 2°55.715 -999 78 10.7 100160 46
2009-11-16 07:41:15 51°13.746 2°55.709 -999 35 10.7 100160 46
2009-11-16 07:41:20 51°13.753 2°55.703 -999 78 10.7 100160 46
2009-11-16 07:41:25 51°13.759 2°55.696 -999 34 10.8 100150 46
2009-11-16 07:41:30 51°13.766 2°55.689 -999 78 10.8 100150 46
2009-11-16 07:41:35 51°13.774 2°55.682 -999 35 10.8 100160 46
2009-11-16 07:41:40 51°13.781 2°55.675 0.8 74 10.8 100160 46
2009-11-16 07:41:45 51°13.789 2°55.668 2.2 37 10.8 100150 46
2009-11-16 07:41:49 51°13.796 2°55.663 2.8 77 10.8 100150 46
2009-11-16 07:41:55 51°13.806 2°55.655 2.7 32 10.8 100150 46
2009-11-16 07:42:00 51°13.814 2°55.648 0.9 79 10.9 100150 48
2009-11-16 07:42:05 51°13.823 2°55.641 0.1 36 10.9 100150 43
2009-11-16 07:42:09 51°13.83 2°55.636 1 82 10.9 100150 43
2009-11-16 07:42:15 51°13.842 2°55.628 0.2 33 10.9 100150 43
2009-11-16 07:42:20 51°13.851 2°55.621 0.1 79 10.9 100150 48
2009-11-16 07:42:25 51°13.861 2°55.614 -999 35 10.9 100150 44
2009-11-16 07:42:30 51°13.871 2°55.607 -999 78 10.9 100150 44
2009-11-16 07:42:35 51°13.881 2°55.6 -999 34 10.9 100150 46
2009-11-16 07:42:40 51°13.891 2°55.593 -999 78 10.9 100150 46
2009-11-16 07:42:45 51°13.901 2°55.587 -999 37 11 100140 46
2009-11-16 07:42:50 51°13.911 2°55.579 -999 42 11 100140 46
2009-11-16 07:42:55 51°13.922 2°55.572 -999 35 11 100150 46
2009-11-16 07:43:00 51°13.933 2°55.565 -999 78 11 100150 46
2009-11-16 07:43:05 51°13.943 2°55.558 -999 35 11 100140 45
2009-11-16 07:43:09 51°13.952 2°55.552 -999 78 11 100140 45
2009-11-16 07:43:15 51°13.965 2°55.543 -999 35 11 100140 46
2009-11-16 07:43:20 51°13.976 2°55.535 -999 78 11 100140 46
2009-11-16 07:43:25 51°13.986 2°55.528 -999 35 11 100140 46
2009-11-16 07:43:30 51°13.997 2°55.52 -999 45 11 100140 46
2009-11-16 07:43:35 51°14.008 2°55.512 -999 35 11 100140 46
2009-11-16 07:43:40 51°14.019 2°55.504 -999 78 11 100140 46
2009-11-16 07:43:45 51°14.03 2°55.497 -999 35 11 100140 46
2009-11-16 07:43:49 51°14.039 2°55.49 -999 78 11 100140 46
2009-11-16 07:43:55 51°14.052 2°55.481 -999 35 11 100140 46
2009-11-16 07:44:00 51°14.064 2°55.473 -999 78 11 100140 46
2009-11-16 07:44:05 51°14.075 2°55.465 -999 35 11 100140 46
2009-11-16 07:44:10 51°14.086 2°55.457 -999 78 11 100140 46
2009-11-16 07:44:15 51°14.097 2°55.449 -999 35 11 100140 46
2009-11-16 07:44:20 51°14.109 2°55.44 -999 78 11 100140 46
2009-11-16 07:44:25 51°14.12 2°55.431 -999 35 11.1 100140 46
2009-11-16 07:44:29 51°14.129 2°55.424 -999 78 11.1 100140 46
2009-11-16 07:44:35 51°14.142 2°55.413 -999 35 11.1 100140 46
2009-11-16 07:44:40 51°14.153 2°55.404 -999 78 11.1 100140 46
2009-11-16 07:44:45 51°14.164 2°55.394 -999 35 11.1 100140 46
2009-11-16 07:44:49 51°14.173 2°55.385 -999 78 11.1 100140 46
2009-11-16 07:44:55 51°14.186 2°55.373 -999 35 11.1 100140 46
2009-11-16 07:45:00 51°14.196 2°55.361 -999 78 11.1 100140 46
2009-11-16 07:45:05 51°14.207 2°55.349 -999 35 11.1 100140 46
2009-11-16 07:45:10 51°14.217 2°55.337 -999 288 11.1 100140 46
2009-11-16 07:45:15 51°14.227 2°55.324 -999 259 11.1 100140 46
2009-11-16 07:45:20 51°14.237 2°55.311 -999 282 11.1 100140 46
2009-11-16 07:45:25 51°14.247 2°55.297 -999 247 11.1 100140 46
2009-11-16 07:45:30 51°14.256 2°55.283 -999 282 11.1 100140 46
2009-11-16 07:45:35 51°14.264 2°55.267 -999 247 11.1 100140 46
2009-11-16 07:45:40 51°14.273 2°55.252 -999 282 11.1 100140 46
2009-11-16 07:45:45 51°14.281 2°55.236 -999 317 11.1 100140 45
2009-11-16 07:45:49 51°14.287 2°55.223 -999 282 11.1 100140 45
2009-11-16 07:45:55 51°14.298 2°55.203 2.7 245 11 100140 46
2009-11-16 07:46:00 51°14.306 2°55.186 0.6 283 11 100140 46
2009-11-16 07:46:05 51°14.313 2°55.169 0.2 262 11 100130 46
2009-11-16 07:46:10 51°14.321 2°55.151 0.1 282 11 100130 46
2009-11-16 07:46:15 51°14.328 2°55.132 0.2 32 11 100130 48
2009-11-16 07:46:20 51°14.334 2°55.113 1 278 11 100130 48
2009-11-16 07:46:25 51°14.34 2°55.093 2.2 238 11 100130 46
2009-11-16 07:46:29 51°14.344 2°55.076 2.8 285 11 100130 46
2009-11-16 07:46:35 51°14.349 2°55.051 2 251 11 100130 45
2009-11-16 07:46:40 51°14.353 2°55.03 1.4 286 11 100130 45
2009-11-16 07:46:45 51°14.358 2°55.008 1.4 33 11 100130 43
2009-11-16 07:46:50 51°14.362 2°54.987 0.7 282 11 100130 43
2009-11-16 07:46:55 51°14.367 2°54.965 2.8 248 11 100120 45
2009-11-16 07:47:00 51°14.371 2°54.943 3.7 280 11 100120 45
2009-11-16 07:47:05 51°14.375 2°54.921 1.4 245 11 100130 45
2009-11-16 07:47:09 51°14.378 2°54.903 3.7 286 11 100130 45
2009-11-16 07:47:15 51°14.382 2°54.875 5.4 39 11 100130 44
2009-11-16 07:47:20 51°14.386 2°54.852 4.2 280 11 100130 44
2009-11-16 07:47:25 51°14.389 2°54.828 4.1 317 11 100130 47
2009-11-16 07:47:29 51°14.392 2°54.809 4.9 281 11 100130 47
2009-11-16 07:47:35 51°14.396 2°54.78 5.2 247 11 100120 46
2009-11-16 07:47:40 51°14.4 2°54.756 3.7 284 11 100120 46
2009-11-16 07:47:45 51°14.403 2°54.731 2 242 11 100120 46
2009-11-16 07:47:50 51°14.407 2°54.707 6.7 285 11 100120 43
2009-11-16 07:47:55 51°14.41 2°54.682 6.3 240 11 100120 47
2009-11-16 07:48:00 51°14.413 2°54.657 7.1 284 11 100120 47
2009-11-16 07:48:05 51°14.414 2°54.632 5.5 241 11 100130 43
2009-11-16 07:48:10 51°14.415 2°54.607 5.8 281 11 100130 43
2009-11-16 07:48:15 51°14.415 2°54.582 6.2 245 11 100120 47
2009-11-16 07:48:20 51°14.415 2°54.556 7.3 286 11 100120 47
2009-11-16 07:48:25 51°14.413 2°54.531 8.4 241 11 100110 44
2009-11-16 07:48:30 51°14.411 2°54.505 6.6 285 11 100110 44
2009-11-16 07:48:35 51°14.408 2°54.48 8.7 238 11 100120 44
2009-11-16 07:48:40 51°14.404 2°54.456 8.2 281 11 100120 44
2009-11-16 07:48:45 51°14.4 2°54.431 8.8 240 11 100120 47
2009-11-16 07:48:50 51°14.394 2°54.407 7.1 286 11 100120 47
2009-11-16 07:48:55 51°14.388 2°54.383 8.9 30 11 100120 47
2009-11-16 07:49:00 51°14.382 2°54.359 8.6 284 11 100120 47
2009-11-16 07:49:05 51°14.375 2°54.335 9.5 235 11 100120 47
2009-11-16 07:49:10 51°14.368 2°54.312 9.5 280 11 100120 47
2009-11-16 07:49:15 51°14.361 2°54.288 10.6 237 11 100120 45
2009-11-16 07:49:20 51°14.354 2°54.265 10.7 285 11 100120 45
2009-11-16 07:49:25 51°14.346 2°54.242 9 235 11 100110 47
2009-11-16 07:49:30 51°14.338 2°54.219 9.9 278 11 100110 47
2009-11-16 07:49:35 51°14.33 2°54.196 8.8 34 11 100120 46
2009-11-16 07:49:40 51°14.322 2°54.174 9.8 278 11 100120 46
2009-11-16 07:49:45 51°14.313 2°54.151 9.8 235 11 100120 47
2009-11-16 07:49:49 51°14.307 2°54.132 11.8 283 11 100120 47
2009-11-16 07:49:55 51°14.297 2°54.105 10 32 11 100110 45
2009-11-16 07:50:00 51°14.289 2°54.081 9 281 11 100110 45
2009-11-16 07:50:05 51°14.281 2°54.058 8 235 11.1 100110 47
2009-11-16 07:50:10 51°14.273 2°54.035 9 281 11.1 100110 47
2009-11-16 07:50:15 51°14.265 2°54.012 12.5 32 11 100100 47
2009-11-16 07:50:20 51°14.257 2°53.989 10.4 285 11 100100 47
2009-11-16 07:50:25 51°14.25 2°53.965 11.3 30 11 100100 47
2009-11-16 07:50:30 51°14.241 2°53.942 11.2 280 11 100100 46
2009-11-16 07:50:35 51°14.234 2°53.919 10.6 34 11 100100 46
2009-11-16 07:50:40 51°14.226 2°53.895 12.5 286 11.1 100110 45
2009-11-16 07:50:45 51°14.218 2°53.872 11 34 11.1 100110 45
2009-11-16 07:50:50 51°14.21 2°53.849 12.2 21 11.1 100100 45
2009-11-16 07:50:55 51°14.202 2°53.826 11.6 240 11.1 100100 45
2009-11-16 07:51:00 51°14.194 2°53.803 10 287 11.1 100100 45
2009-11-16 07:51:05 51°14.186 2°53.779 10.3 35 11.1 100100 45
2009-11-16 07:51:10 51°14.178 2°53.756 8.9 287 11.1 100100 46
2009-11-16 07:51:15 51°14.17 2°53.733 9.1 240 11.1 100100 46
2009-11-16 07:51:20 51°14.162 2°53.709 11.3 277 11.1 100100 48
2009-11-16 07:51:25 51°14.155 2°53.685 11.1 240 11.1 100100 48
2009-11-16 07:51:30 51°14.148 2°53.662 10.6 286 11.1 100100 47
2009-11-16 07:51:35 51°14.14 2°53.638 11.7 241 11.1 100100 47
2009-11-16 07:51:40 51°14.132 2°53.615 10.2 284 11.1 100110 46
2009-11-16 07:51:45 51°14.124 2°53.592 11.8 33 11.1 100100 45
2009-11-16 07:51:50 51°14.116 2°53.568 9.1 22 11.1 100100 45
2009-11-16 07:51:55 51°14.109 2°53.545 9.5 237 11.1 100100 45
2009-11-16 07:52:00 51°14.101 2°53.521 11.8 278 11.1 100100 47
2009-11-16 07:52:05 51°14.094 2°53.497 10.9 239 11.1 100100 47
2009-11-16 07:52:10 51°14.086 2°53.473 11.7 282 11.1 100110 45
2009-11-16 07:52:15 51°14.079 2°53.45 9.8 235 11.1 100110 45
2009-11-16 07:52:20 51°14.071 2°53.426 10.4 283 11.1 100110 45
2009-11-16 07:52:25 51°14.064 2°53.402 12 236 11.1 100110 45
2009-11-16 07:52:30 51°14.057 2°53.378 11.7 283 11.1 100100 45
2009-11-16 07:52:35 51°14.049 2°53.355 9.8 241 11.1 100100 45
2009-11-16 07:52:40 51°14.042 2°53.331 11.6 278 11.1 100110 44
2009-11-16 07:52:45 51°14.035 2°53.307 10.9 240 11.1 100110 44
2009-11-16 07:52:50 51°14.028 2°53.283 10.9 22 11.1 100110 46
2009-11-16 07:52:55 51°14.02 2°53.259 12.5 237 11.1 100110 46
2009-11-16 07:53:00 51°14.012 2°53.235 10.7 277 11.1 100100 46
2009-11-16 07:53:05 51°14.005 2°53.211 10.8 236 11.1 100100 46
2009-11-16 07:53:10 51°13.998 2°53.187 10.4 287 11.1 100100 45
2009-11-16 07:53:15 51°13.991 2°53.163 10.7 32 11.1 100100 45
2009-11-16 07:53:20 51°13.983 2°53.139 12.7 281 11.1 100110 47
2009-11-16 07:53:25 51°13.977 2°53.115 12.7 238 11.1 100100 45
2009-11-16 07:53:29 51°13.971 2°53.096 11.7 282 11.1 100100 45
2009-11-16 07:53:35 51°13.962 2°53.067 11.3 235 11.1 100100 45
2009-11-16 07:53:40 51°13.955 2°53.044 12.3 287 11.2 100110 45
2009-11-16 07:53:45 51°13.947 2°53.02 12 238 11.2 100110 45
2009-11-16 07:53:50 51°13.94 2°52.996 11.7 24 11.2 100100 45
2009-11-16 07:53:55 51°13.933 2°52.971 10.2 235 11.2 100100 45
2009-11-16 07:54:00 51°13.926 2°52.947 9.7 282 11.2 100110 47
2009-11-16 07:54:05 51°13.919 2°52.923 11.2 34 11.2 100110 47
2009-11-16 07:54:09 51°13.913 2°52.904 11.8 282 11.1 100100 47
2009-11-16 07:54:15 51°13.905 2°52.875 10.5 34 11.1 100100 47
2009-11-16 07:54:20 51°13.898 2°52.851 12.4 278 11.2 100110 46
2009-11-16 07:54:25 51°13.89 2°52.828 12.6 35 11.2 100110 46
2009-11-16 07:54:30 51°13.883 2°52.804 12.7 283 11.2 100100 46
2009-11-16 07:54:35 51°13.876 2°52.78 10.8 236 11.2 100100 46
2009-11-16 07:54:40 51°13.869 2°52.756 11.1 283 11.2 100100 47
2009-11-16 07:54:45 51°13.861 2°52.732 12.2 33 11.2 100100 47
2009-11-16 07:54:49 51°13.856 2°52.712 12.1 24 11.2 100100 47
2009-11-16 07:54:55 51°13.847 2°52.683 11 31 11.2 100100 47
2009-11-16 07:55:00 51°13.84 2°52.659 11 286 11.2 100100 47
2009-11-16 07:55:05 51°13.832 2°52.636 9.8 34 11.2 100100 47
2009-11-16 07:55:10 51°13.824 2°52.613 10.8 283 11.2 100100 45
2009-11-16 07:55:15 51°13.816 2°52.589 11.3 32 11.2 100100 45
2009-11-16 07:55:20 51°13.808 2°52.566 10.7 279 11.2 100100 46
2009-11-16 07:55:25 51°13.8 2°52.543 12.4 237 11.2 100100 46
2009-11-16 07:55:29 51°13.794 2°52.524 12.4 283 11.2 100100 47
2009-11-16 07:55:35 51°13.783 2°52.497 11.4 237 11.2 100100 47
2009-11-16 07:55:40 51°13.775 2°52.474 10.2 286 11.2 100100 45
2009-11-16 07:55:45 51°13.767 2°52.451 12.3 31 11.2 100100 45
2009-11-16 07:55:50 51°13.758 2°52.428 11.2 285 11.2 100100 45
2009-11-16 07:55:55 51°13.75 2°52.405 12.1 32 11.2 100100 45
2009-11-16 07:56:00 51°13.742 2°52.381 10.8 276 11.2 100100 47
2009-11-16 07:56:05 51°13.733 2°52.358 12.7 37 11.2 100100 47
2009-11-16 07:56:09 51°13.727 2°52.34 13.6 282 11.2 100100 46
2009-11-16 07:56:15 51°13.716 2°52.312 12 238 11.2 100100 46
2009-11-16 07:56:20 51°13.708 2°52.289 10.9 281 11.2 100100 45
2009-11-16 07:56:25 51°13.7 2°52.266 11.1 33 11.2 100100 45
2009-11-16 07:56:30 51°13.691 2°52.242 12.4 281 11.2 100100 45
2009-11-16 07:56:35 51°13.683 2°52.219 11 34 11.2 100100 45
2009-11-16 07:56:40 51°13.674 2°52.195 10 285 11.2 100100 45
2009-11-16 07:56:45 51°13.665 2°52.172 11.3 36 11.2 100100 45
2009-11-16 07:56:50 51°13.657 2°52.148 10.2 281 11.2 100100 47
2009-11-16 07:56:55 51°13.649 2°52.124 11.1 236 11.2 100100 47
2009-11-16 07:57:00 51°13.64 2°52.101 10.7 278 11.2 100090 46
2009-11-16 07:57:05 51°13.631 2°52.077 9 235 11.2 100090 46
2009-11-16 07:57:09 51°13.625 2°52.058 10.2 281 11.2 100100 46
2009-11-16 07:57:15 51°13.614 2°52.03 10.2 234 11.2 100100 46
2009-11-16 07:57:20 51°13.605 2°52.006 11.1 283 11.2 100100 47
2009-11-16 07:57:25 51°13.597 2°51.982 12 34 11.2 100100 47
2009-11-16 07:57:30 51°13.588 2°51.958 13.2 283 11.2 100100 46
2009-11-16 07:57:35 51°13.58 2°51.935 11.6 235 11.2 100100 46
2009-11-16 07:57:40 51°13.571 2°51.911 12.2 284 11.2 100100 45
2009-11-16 07:57:45 51°13.563 2°51.887 12 235 11.2 100100 45
2009-11-16 07:57:50 51°13.554 2°51.863 11.8 26 11.2 100100 47
2009-11-16 07:57:55 51°13.546 2°51.839 12.7 234 11.2 100100 47
2009-11-16 07:58:00 51°13.537 2°51.815 13.9 278 11.2 100100 46
2009-11-16 07:58:05 51°13.529 2°51.791 12.5 33 11.2 100100 46
2009-11-16 07:58:09 51°13.522 2°51.772 12.4 286 11.2 100100 45
2009-11-16 07:58:15 51°13.512 2°51.743 11.9 37 11.2 100100 45
2009-11-16 07:58:20 51°13.504 2°51.719 13 282 11.2 100090 47
2009-11-16 07:58:25 51°13.495 2°51.695 12.1 236 11.2 100090 46
2009-11-16 07:58:30 51°13.487 2°51.672 11 277 11.2 100090 46
2009-11-16 07:58:35 51°13.478 2°51.648 12.9 234 11.2 100090 46
2009-11-16 07:58:40 51°13.469 2°51.624 12 286 11.2 100090 46
2009-11-16 07:58:45 51°13.461 2°51.6 11.6 238 11.2 100090 46
2009-11-16 07:58:49 51°13.454 2°51.581 12 284 11.2 100090 46
2009-11-16 07:58:55 51°13.444 2°51.552 12.8 236 11.2 100090 46
2009-11-16 07:59:00 51°13.435 2°51.529 12.1 282 11.2 100090 47
2009-11-16 07:59:05 51°13.427 2°51.505 12.3 32 11.2 100090 47
2009-11-16 07:59:10 51°13.418 2°51.481 11.2 281 11.2 100090 45
2009-11-16 07:59:15 51°13.409 2°51.458 12.2 237 11.2 100090 45
2009-11-16 07:59:20 51°13.401 2°51.434 11.6 284 11.2 100090 47
2009-11-16 07:59:25 51°13.392 2°51.41 12.2 33 11.2 100090 47
2009-11-16 07:59:29 51°13.386 2°51.391 10.8 285 11.2 100080 45
2009-11-16 07:59:35 51°13.375 2°51.362 9.3 237 11.2 100080 45
2009-11-16 07:59:40 51°13.367 2°51.338 11.4 278 11.2 100090 45
2009-11-16 07:59:45 51°13.358 2°51.315 11.2 236 11.2 100090 45
2009-11-16 07:59:50 51°13.35 2°51.291 9.9 26 11.2 100090 46
2009-11-16 07:59:55 51°13.341 2°51.267 11 236 11.2 100090 46
2009-11-16 08:00:00 51°13.333 2°51.243 12.3 282 11.2 100090 47
2009-11-16 08:00:05 51°13.324 2°51.22 12 32 11.2 100090 47
2009-11-16 08:00:10 51°13.316 2°51.196 11.4 277 11.2 100090 46
2009-11-16 08:00:15 51°13.307 2°51.172 11.5 34 11.2 100090 46
2009-11-16 08:00:20 51°13.299 2°51.148 12.9 286 11.2 100090 46
2009-11-16 08:00:25 51°13.29 2°51.124 12.5 34 11.2 100090 46
2009-11-16 08:00:30 51°13.282 2°51.1 11.1 276 11.2 100090 46
2009-11-16 08:00:35 51°13.273 2°51.077 10.6 235 11.2 100090 46
2009-11-16 08:00:40 51°13.265 2°51.052 11.2 283 11.2 100090 45
2009-11-16 08:00:45 51°13.257 2°51.028 11.2 236 11.2 100090 45
2009-11-16 08:00:50 51°13.249 2°51.004 10.7 281 11.2 100080 46
2009-11-16 08:00:55 51°13.241 2°50.98 12.9 233 11.2 100080 46
2009-11-16 08:01:00 51°13.233 2°50.956 11 276 11.2 100080 47
2009-11-16 08:01:05 51°13.225 2°50.931 12.5 237 11.2 100080 47
2009-11-16 08:01:10 51°13.217 2°50.907 12.8 283 11.2 100080 47
2009-11-16 08:01:15 51°13.209 2°50.883 13 237 11.2 100080 47
2009-11-16 08:01:20 51°13.201 2°50.859 12 281 11.2 100090 45
2009-11-16 08:01:25 51°13.193 2°50.834 13.1 31 11.2 100090 45
2009-11-16 08:01:29 51°13.187 2°50.815 12.9 279 11.2 100080 45
2009-11-16 08:01:35 51°13.178 2°50.786 11.9 238 11.2 100080 45
2009-11-16 08:01:40 51°13.17 2°50.761 11 280 11.2 100070 46
2009-11-16 08:01:45 51°13.162 2°50.737 12.2 238 11.2 100070 46
2009-11-16 08:01:50 51°13.154 2°50.713 11.9 25 11.2 100080 46
2009-11-16 08:01:55 51°13.146 2°50.689 10.5 235 11.2 100080 46
2009-11-16 08:02:00 51°13.138 2°50.665 10.5 277 11.2 100080 45
2009-11-16 08:02:05 51°13.13 2°50.64 12.1 237 11.2 100080 45
2009-11-16 08:02:09 51°13.124 2°50.621 13.3 280 11.2 100080 46
2009-11-16 08:02:15 51°13.114 2°50.592 11.3 237 11.2 100080 46
2009-11-16 08:02:20 51°13.106 2°50.568 10.7 282 11.2 100080 46
2009-11-16 08:02:25 51°13.098 2°50.544 12.4 239 11.2 100080 46
2009-11-16 08:02:30 51°13.091 2°50.52 12.3 286 11.2 100080 47
2009-11-16 08:02:35 51°13.083 2°50.495 11.7 239 11.2 100080 47
2009-11-16 08:02:40 51°13.075 2°50.471 11.8 281 11.1 100080 46
2009-11-16 08:02:45 51°13.067 2°50.447 11 238 11.1 100080 46
2009-11-16 08:02:50 51°13.059 2°50.422 11.2 24 11.2 100090 45
2009-11-16 08:02:55 51°13.051 2°50.398 11.9 237 11.2 100090 45
2009-11-16 08:03:00 51°13.044 2°50.374 12.1 280 11.2 100080 46
2009-11-16 08:03:05 51°13.036 2°50.35 12.7 237 11.2 100080 46
2009-11-16 08:03:10 51°13.028 2°50.325 11.3 285 11.2 100080 45
2009-11-16 08:03:15 51°13.02 2°50.301 12.1 32 11.2 100080 45
2009-11-16 08:03:20 51°13.013 2°50.277 11.3 282 11.2 100080 45
2009-11-16 08:03:25 51°13.005 2°50.253 11.3 236 11.2 100080 45
2009-11-16 08:03:30 51°12.997 2°50.229 10.1 285 11.1 100080 47
2009-11-16 08:03:35 51°12.989 2°50.205 12 30 11.1 100080 47
2009-11-16 08:03:40 51°12.981 2°50.181 9.3 281 11.2 100080 47
2009-11-16 08:03:45 51°12.973 2°50.157 12.1 31 11.2 100080 47
2009-11-16 08:03:50 51°12.965 2°50.133 11.2 19 11.2 100080 47
2009-11-16 08:03:55 51°12.957 2°50.108 13.4 238 11.2 100080 47
2009-11-16 08:04:00 51°12.949 2°50.084 12.3 280 11.2 100090 46
2009-11-16 08:04:05 51°12.942 2°50.06 12 34 11.2 100090 46
2009-11-16 08:04:10 51°12.934 2°50.036 10.9 281 11.1 100080 45
2009-11-16 08:04:15 51°12.926 2°50.012 12.1 236 11.1 100080 45
2009-11-16 08:04:20 51°12.918 2°49.988 11.5 281 11.2 100070 46
2009-11-16 08:04:25 51°12.91 2°49.964 11.3 237 11.2 100070 46
2009-11-16 08:04:30 51°12.902 2°49.939 11.2 278 11.2 100080 46
2009-11-16 08:04:35 51°12.894 2°49.915 12.6 236 11.2 100080 46
2009-11-16 08:04:40 51°12.887 2°49.891 11.8 282 11.1 100080 46
2009-11-16 08:04:45 51°12.879 2°49.867 13.1 238 11.1 100080 46
2009-11-16 08:04:50 51°12.871 2°49.843 12.2 23 11.1 100080 45
2009-11-16 08:04:55 51°12.863 2°49.819 11.2 33 11.1 100080 45
2009-11-16 08:05:00 51°12.855 2°49.795 11.7 280 11.2 100090 47
2009-11-16 08:05:05 51°12.847 2°49.771 12.1 235 11.2 100090 47
2009-11-16 08:05:09 51°12.841 2°49.752 10.5 277 11.2 100080 46
2009-11-16 08:05:15 51°12.831 2°49.723 12.9 235 11.2 100080 46
2009-11-16 08:05:20 51°12.823 2°49.699 11.4 277 11.1 100080 47
2009-11-16 08:05:25 51°12.816 2°49.675 12.2 238 11.1 100080 47
2009-11-16 08:05:30 51°12.808 2°49.651 12 282 11.2 100080 46
2009-11-16 08:05:35 51°12.8 2°49.627 12.7 237 11.2 100080 46
2009-11-16 08:05:40 51°12.792 2°49.603 11.5 281 11.2 100080 45
2009-11-16 08:05:45 51°12.784 2°49.579 12.3 233 11.2 100080 45
2009-11-16 08:05:49 51°12.778 2°49.56 11.1 25 11.2 100080 47
2009-11-16 08:05:55 51°12.769 2°49.531 11 35 11.2 100080 47
2009-11-16 08:06:00 51°12.761 2°49.506 11.2 280 11.2 100080 47
2009-11-16 08:06:05 51°12.753 2°49.482 11.2 33 11.2 100080 47
2009-11-16 08:06:10 51°12.746 2°49.458 11.2 285 11.2 100090 47
2009-11-16 08:06:15 51°12.738 2°49.434 10.7 33 11.2 100090 47
2009-11-16 08:06:20 51°12.73 2°49.41 13 282 11.2 100080 47
2009-11-16 08:06:25 51°12.722 2°49.386 12.5 36 11.2 100080 47
2009-11-16 08:06:29 51°12.716 2°49.367 14.1 286 11.2 100080 46
2009-11-16 08:06:35 51°12.707 2°49.338 14.5 238 11.2 100080 46
2009-11-16 08:06:40 51°12.699 2°49.314 14 277 11.2 100080 46
2009-11-16 08:06:45 51°12.691 2°49.29 11.5 232 11.2 100080 46
2009-11-16 08:06:50 51°12.684 2°49.266 11.7 25 11.1 100090 47
2009-11-16 08:06:55 51°12.676 2°49.242 12.5 34 11.1 100090 47
2009-11-16 08:07:00 51°12.668 2°49.218 11.4 281 11.2 100080 47
2009-11-16 08:07:05 51°12.66 2°49.194 12 239 11.2 100080 47
2009-11-16 08:07:10 51°12.653 2°49.17 10.7 281 11.2 100090 46
2009-11-16 08:07:15 51°12.645 2°49.145 10.8 36 11.2 100090 46
2009-11-16 08:07:20 51°12.638 2°49.121 12.6 286 11.2 100080 45
2009-11-16 08:07:25 51°12.631 2°49.096 12.6 236 11.2 100080 45
2009-11-16 08:07:30 51°12.624 2°49.071 14.1 280 11.2 100100 47
2009-11-16 08:07:35 51°12.617 2°49.047 12.5 236 11.2 100100 47
2009-11-16 08:07:40 51°12.611 2°49.022 12.8 284 11.2 100090 45
2009-11-16 08:07:45 51°12.604 2°48.998 13.3 34 11.2 100090 45
2009-11-16 08:07:50 51°12.597 2°48.973 13.1 20 11.2 100090 45
2009-11-16 08:07:55 51°12.59 2°48.948 11.3 31 11.2 100090 45
2009-11-16 08:08:00 51°12.583 2°48.924 11.7 283 11.2 100080 47
2009-11-16 08:08:05 51°12.577 2°48.899 12 239 11.2 100080 47
2009-11-16 08:08:09 51°12.571 2°48.879 10.8 286 11.2 100100 47
2009-11-16 08:08:15 51°12.563 2°48.85 11.5 30 11.2 100100 47
2009-11-16 08:08:20 51°12.556 2°48.826 10.1 284 11.2 100080 47
2009-11-16 08:08:25 51°12.549 2°48.801 13.4 35 11.2 100080 47
2009-11-16 08:08:30 51°12.542 2°48.777 10.9 282 11.2 100090 45
2009-11-16 08:08:35 51°12.535 2°48.753 12.5 36 11.2 100090 45
2009-11-16 08:08:40 51°12.528 2°48.728 11 284 11.2 100100 45
2009-11-16 08:08:45 51°12.521 2°48.703 11.6 37 11.2 100100 45
2009-11-16 08:08:50 51°12.515 2°48.679 12.2 23 11.2 100100 47
2009-11-16 08:08:55 51°12.508 2°48.654 13.2 35 11.2 100100 47
2009-11-16 08:09:00 51°12.501 2°48.629 11.8 282 11.2 100100 45
2009-11-16 08:09:05 51°12.495 2°48.605 11.6 36 11.2 100100 45
2009-11-16 08:09:09 51°12.489 2°48.585 12.2 279 11.2 100100 46
2009-11-16 08:09:15 51°12.481 2°48.556 12.4 232 11.2 100100 46
2009-11-16 08:09:20 51°12.474 2°48.531 12.2 278 11.2 100100 46
2009-11-16 08:09:25 51°12.467 2°48.507 13.6 35 11.2 100100 46
2009-11-16 08:09:30 51°12.46 2°48.482 12.3 278 11.2 100100 47
2009-11-16 08:09:35 51°12.454 2°48.458 12.8 38 11.2 100100 47
2009-11-16 08:09:40 51°12.447 2°48.433 12.6 284 11.2 100110 47
2009-11-16 08:09:45 51°12.44 2°48.409 12.3 30 11.2 100110 47
2009-11-16 08:09:50 51°12.434 2°48.384 12.5 19 11.2 100110 46
2009-11-16 08:09:55 51°12.426 2°48.36 13.3 37 11.2 100110 46
2009-11-16 08:10:00 51°12.419 2°48.336 12.3 284 11.2 100110 45
2009-11-16 08:10:05 51°12.413 2°48.311 11.4 32 11.2 100110 45
2009-11-16 08:10:09 51°12.407 2°48.291 13 280 11.2 100110 46
2009-11-16 08:10:15 51°12.399 2°48.263 11.6 35 11.2 100110 46
2009-11-16 08:10:20 51°12.392 2°48.238 14.1 280 11.2 100100 46
2009-11-16 08:10:25 51°12.385 2°48.214 13.9 33 11.2 100100 46
2009-11-16 08:10:30 51°12.378 2°48.19 12.9 283 11.2 100110 47
2009-11-16 08:10:35 51°12.371 2°48.166 11.2 36 11.2 100110 46
2009-11-16 08:10:40 51°12.364 2°48.142 11.6 278 11.2 100110 46
2009-11-16 08:10:45 51°12.357 2°48.117 12.9 32 11.2 100110 46
2009-11-16 08:10:49 51°12.352 2°48.098 11.9 24 11.2 100110 47
2009-11-16 08:10:55 51°12.343 2°48.069 13.4 34 11.2 100110 47
2009-11-16 08:11:00 51°12.336 2°48.045 14.5 279 11.2 100100 46
2009-11-16 08:11:05 51°12.329 2°48.021 14 36 11.2 100100 46
2009-11-16 08:11:10 51°12.323 2°47.996 11.5 280 11.2 100110 45
2009-11-16 08:11:15 51°12.316 2°47.972 13.7 32 11.2 100110 45
2009-11-16 08:11:20 51°12.309 2°47.948 12.8 282 11.2 100110 45
2009-11-16 08:11:25 51°12.302 2°47.924 11.8 235 11.2 100110 46
2009-11-16 08:11:29 51°12.297 2°47.904 11.7 281 11.2 100110 46
2009-11-16 08:11:35 51°12.288 2°47.876 12.7 33 11.2 100110 46
2009-11-16 08:11:40 51°12.282 2°47.852 13.9 280 11.2 100100 47
2009-11-16 08:11:45 51°12.275 2°47.827 14 231 11.2 100100 47
2009-11-16 08:11:50 51°12.268 2°47.803 11.9 282 11.2 100110 45
2009-11-16 08:11:55 51°12.261 2°47.779 13 34 11.2 100110 45
2009-11-16 08:12:00 51°12.255 2°47.755 14.3 278 11.3 100110 45
2009-11-16 08:12:05 51°12.248 2°47.731 15.3 236 11.3 100100 45
2009-11-16 08:12:10 51°12.241 2°47.707 15 280 11.3 100100 45
2009-11-16 08:12:15 51°12.234 2°47.683 13.8 32 11.3 100100 45
2009-11-16 08:12:20 51°12.228 2°47.658 9.9 287 11.3 100100 46
2009-11-16 08:12:25 51°12.221 2°47.634 10.9 32 11.3 100100 46
2009-11-16 08:12:30 51°12.214 2°47.61 12.5 277 11.3 100090 46
2009-11-16 08:12:35 51°12.207 2°47.586 12.7 35 11.3 100090 46
2009-11-16 08:12:40 51°12.2 2°47.562 12.7 287 11.3 100100 46
2009-11-16 08:12:45 51°12.194 2°47.538 12.3 33 11.3 100100 46
2009-11-16 08:12:50 51°12.187 2°47.514 12.9 24 11.3 100120 46
2009-11-16 08:12:55 51°12.181 2°47.49 15.3 33 11.3 100120 46
2009-11-16 08:13:00 51°12.174 2°47.466 15 284 11.3 100100 47
2009-11-16 08:13:05 51°12.167 2°47.441 12.6 32 11.3 100100 47
2009-11-16 08:13:10 51°12.16 2°47.417 13.6 286 11.3 100100 45
2009-11-16 08:13:15 51°12.154 2°47.393 12.9 33 11.3 100100 45
2009-11-16 08:13:20 51°12.147 2°47.369 13.5 285 11.3 100100 47
2009-11-16 08:13:25 51°12.141 2°47.344 12.4 30 11.3 100100 47
2009-11-16 08:13:29 51°12.135 2°47.325 13.6 278 11.3 100090 45
2009-11-16 08:13:35 51°12.127 2°47.297 11.3 235 11.3 100090 45
2009-11-16 08:13:40 51°12.12 2°47.273 12.6 283 11.3 100090 46
2009-11-16 08:13:45 51°12.113 2°47.249 13.7 237 11.3 100090 46
2009-11-16 08:13:50 51°12.107 2°47.224 12.3 22 11.3 100100 45
2009-11-16 08:13:55 51°12.1 2°47.2 12.4 30 11.3 100100 45
2009-11-16 08:14:00 51°12.094 2°47.176 13.3 277 11.3 100090 47
2009-11-16 08:14:05 51°12.087 2°47.152 12.2 233 11.3 100100 47
2009-11-16 08:14:09 51°12.081 2°47.133 12.3 282 11.3 100100 47
2009-11-16 08:14:15 51°12.072 2°47.105 13.1 235 11.3 100100 47
2009-11-16 08:14:20 51°12.066 2°47.081 12.3 282 11.3 100100 45
2009-11-16 08:14:25 51°12.059 2°47.056 11.9 33 11.3 100100 45
2009-11-16 08:14:30 51°12.053 2°47.032 12.4 287 11.3 100090 46
2009-11-16 08:14:35 51°12.046 2°47.008 11.2 37 11.3 100090 46
2009-11-16 08:14:40 51°12.039 2°46.984 12.6 283 11.3 100090 46
2009-11-16 08:14:45 51°12.032 2°46.96 11.5 34 11.3 100090 46
2009-11-16 08:14:49 51°12.027 2°46.941 11.1 24 11.3 100090 45
2009-11-16 08:14:55 51°12.019 2°46.912 13.8 236 11.3 100090 45
2009-11-16 08:15:00 51°12.012 2°46.888 11.2 285 11.3 100100 47
2009-11-16 08:15:05 51°12.005 2°46.864 12.1 239 11.3 100100 47
2009-11-16 08:15:10 51°11.998 2°46.839 14 283 11.3 100080 45
2009-11-16 08:15:15 51°11.991 2°46.815 13.1 237 11.3 100080 45
2009-11-16 08:15:20 51°11.984 2°46.791 12 286 11.3 100080 45
2009-11-16 08:15:25 51°11.977 2°46.767 12.8 35 11.3 100080 45
2009-11-16 08:15:29 51°11.972 2°46.747 14 284 11.3 100080 45
2009-11-16 08:15:35 51°11.963 2°46.718 11.3 239 11.3 100080 45
2009-11-16 08:15:40 51°11.956 2°46.693 11.1 286 11.3 100080 47
2009-11-16 08:15:45 51°11.95 2°46.668 12.7 239 11.3 100080 47
2009-11-16 08:15:50 51°11.945 2°46.643 12.1 27 11.4 100090 47
2009-11-16 08:15:55 51°11.939 2°46.617 11.9 235 11.4 100090 47
2009-11-16 08:16:00 51°11.934 2°46.592 13.7 278 11.3 100070 45
2009-11-16 08:16:05 51°11.928 2°46.566 12.5 238 11.3 100070 45
2009-11-16 08:16:10 51°11.923 2°46.541 13.1 283 11.3 100080 45
2009-11-16 08:16:15 51°11.918 2°46.515 13 239 11.3 100080 45
2009-11-16 08:16:20 51°11.914 2°46.489 13.5 281 11.3 100070 45
2009-11-16 08:16:25 51°11.909 2°46.463 14.2 243 11.3 100070 46
2009-11-16 08:16:30 51°11.904 2°46.437 11 285 11.3 100070 46
2009-11-16 08:16:35 51°11.9 2°46.412 12.9 31 11.3 100070 46
2009-11-16 08:16:40 51°11.895 2°46.386 14.7 279 11.3 100060 46
2009-11-16 08:16:45 51°11.89 2°46.36 12.8 242 11.3 100060 46
2009-11-16 08:16:50 51°11.886 2°46.334 13.8 287 11.4 100070 47
2009-11-16 08:16:55 51°11.882 2°46.308 11.8 242 11.4 100070 47
2009-11-16 08:17:00 51°11.877 2°46.283 11.4 283 11.4 100080 47
2009-11-16 08:17:05 51°11.874 2°46.256 12.4 239 11.4 100080 47
2009-11-16 08:17:10 51°11.87 2°46.23 12.1 286 11.4 100060 47
2009-11-16 08:17:15 51°11.867 2°46.204 12.7 242 11.4 100060 47
2009-11-16 08:17:20 51°11.864 2°46.178 11.1 277 11.4 100080 47
2009-11-16 08:17:25 51°11.862 2°46.151 10.7 241 11.4 100080 47
2009-11-16 08:17:30 51°11.86 2°46.125 12.2 279 11.4 100080 47
2009-11-16 08:17:35 51°11.858 2°46.098 11.3 244 11.4 100080 47
2009-11-16 08:17:40 51°11.856 2°46.072 11.5 283 11.4 100070 45
2009-11-16 08:17:45 51°11.854 2°46.045 11.4 244 11.4 100070 45
2009-11-16 08:17:50 51°11.853 2°46.019 10.8 20 11.4 100080 46
2009-11-16 08:17:55 51°11.851 2°45.992 12.2 245 11.4 100080 46
2009-11-16 08:18:00 51°11.85 2°45.966 11 281 11.4 100080 46
2009-11-16 08:18:05 51°11.849 2°45.939 12.3 245 11.4 100070 46
2009-11-16 08:18:09 51°11.848 2°45.918 12.3 280 11.4 100070 46
2009-11-16 08:18:15 51°11.847 2°45.885 11.3 247 11.4 100070 46
2009-11-16 08:18:20 51°11.846 2°45.859 12.5 282 11.4 100080 47
2009-11-16 08:18:25 51°11.845 2°45.832 12.2 250 11.4 100080 47
2009-11-16 08:18:30 51°11.844 2°45.806 10.5 280 11.4 100070 46
2009-11-16 08:18:35 51°11.843 2°45.779 9.9 242 11.4 100070 46
2009-11-16 08:18:40 51°11.842 2°45.752 13.2 283 11.4 100070 47
2009-11-16 08:18:45 51°11.842 2°45.726 12.4 244 11.4 100070 47
2009-11-16 08:18:49 51°11.841 2°45.704 10.8 246 11.4 100070 45
2009-11-16 08:18:55 51°11.839 2°45.673 11.3 246 11.4 100070 45
2009-11-16 08:19:00 51°11.837 2°45.646 12.7 278 11.4 100080 46
2009-11-16 08:19:05 51°11.836 2°45.62 10 245 11.4 100080 46
2009-11-16 08:19:10 51°11.834 2°45.594 12 284 11.4 100070 47
2009-11-16 08:19:15 51°11.832 2°45.567 11.1 246 11.4 100070 47
2009-11-16 08:19:20 51°11.83 2°45.541 11.9 286 11.4 100060 46
2009-11-16 08:19:25 51°11.828 2°45.515 11.4 247 11.4 100060 46
2009-11-16 08:19:29 51°11.826 2°45.494 10.3 283 11.4 100060 46
2009-11-16 08:19:35 51°11.823 2°45.463 13.4 241 11.4 100060 46
2009-11-16 08:19:40 51°11.821 2°45.437 13.2 279 11.4 100070 47
2009-11-16 08:19:45 51°11.819 2°45.411 13.1 247 11.4 100070 47
2009-11-16 08:19:50 51°11.816 2°45.385 12 23 11.5 100060 48
2009-11-16 08:19:55 51°11.814 2°45.359 11.7 243 11.5 100060 48
2009-11-16 08:20:00 51°11.811 2°45.333 10.5 282 11.5 100070 46
2009-11-16 08:20:05 51°11.809 2°45.307 11.5 30 11.5 100070 46
2009-11-16 08:20:09 51°11.807 2°45.286 9.3 279 11.5 100060 45
2009-11-16 08:20:15 51°11.804 2°45.255 10.8 246 11.5 100060 45
2009-11-16 08:20:20 51°11.802 2°45.229 13.3 281 11.5 100070 46
2009-11-16 08:20:25 51°11.799 2°45.203 10.8 242 11.5 100070 46
2009-11-16 08:20:30 51°11.797 2°45.177 12.5 278 11.5 100070 44
2009-11-16 08:20:35 51°11.795 2°45.151 12.3 243 11.5 100070 44
2009-11-16 08:20:40 51°11.792 2°45.125 12.8 284 11.5 100060 46
2009-11-16 08:20:45 51°11.79 2°45.099 10.9 243 11.5 100050 47
2009-11-16 08:20:49 51°11.788 2°45.078 11.7 22 11.5 100050 47
2009-11-16 08:21:33 51°11.766 2°44.851 13.7 309 11.5 100060 47
2009-11-16 08:21:38 51°11.763 2°44.825 12.9 24 11.5 100070 47
2009-11-16 08:21:43 51°11.761 2°44.8 12.6 305 11.5 100070 47
2009-11-16 08:21:48 51°11.758 2°44.774 11.5 26 11.5 100060 47
2009-11-16 08:21:53 51°11.756 2°44.748 11.1 304 11.5 100060 47
2009-11-16 08:21:58 51°11.753 2°44.722 10.5 248 11.5 100060 47
2009-11-16 08:22:03 51°11.751 2°44.697 10.5 301 11.5 100060 47
2009-11-16 08:22:08 51°11.748 2°44.671 10.9 27 11.5 100070 47
2009-11-16 08:22:13 51°11.745 2°44.645 11.8 304 11.5 100070 47
2009-11-16 08:22:18 51°11.743 2°44.62 11.6 245 11.5 100060 48
2009-11-16 08:22:23 51°11.74 2°44.594 11 303 11.5 100060 48
2009-11-16 08:22:28 51°11.738 2°44.568 11.5 23 11.5 100050 47
2009-11-16 08:22:33 51°11.735 2°44.543 12.1 307 11.5 100050 47
2009-11-16 08:22:38 51°11.733 2°44.517 11.7 23 11.5 100050 47
2009-11-16 08:22:43 51°11.73 2°44.492 11.5 305 11.5 100050 47
2009-11-16 08:22:48 51°11.728 2°44.466 12.3 27 11.5 100060 47
2009-11-16 08:22:53 51°11.725 2°44.44 13 282 11.5 100060 47
2009-11-16 08:22:57 51°11.723 2°44.42 10.9 20 11.6 100060 45
2009-11-16 08:23:03 51°11.719 2°44.389 11 308 11.6 100060 45
2009-11-16 08:23:08 51°11.716 2°44.364 11.1 25 11.6 100050 46
2009-11-16 08:23:13 51°11.713 2°44.339 12 304 11.6 100050 46
2009-11-16 08:23:17 51°11.711 2°44.318 13.1 25 11.5 100040 47
2009-11-16 08:23:23 51°11.707 2°44.288 12 304 11.5 100040 47
2009-11-16 08:23:28 51°11.704 2°44.262 10.1 28 11.6 100050 47
2009-11-16 08:23:33 51°11.701 2°44.237 11.4 303 11.6 100050 47
2009-11-16 08:23:38 51°11.698 2°44.211 10.7 27 11.6 100050 47
2009-11-16 08:23:43 51°11.695 2°44.186 11.9 304 11.6 100050 47
2009-11-16 08:23:48 51°11.692 2°44.16 11 244 11.6 100060 48
2009-11-16 08:23:53 51°11.689 2°44.135 11.4 303 11.6 100060 48
2009-11-16 08:23:57 51°11.687 2°44.115 12.7 26 11.6 100050 46
2009-11-16 08:24:03 51°11.683 2°44.084 12.1 305 11.6 100050 46
2009-11-16 08:24:08 51°11.68 2°44.059 11.2 27 11.6 100050 47
2009-11-16 08:24:13 51°11.677 2°44.034 12.6 311 11.6 100050 47
2009-11-16 08:24:18 51°11.674 2°44.008 11 25 11.6 100060 47
2009-11-16 08:24:23 51°11.671 2°43.983 12.1 303 11.6 100060 47
2009-11-16 08:24:28 51°11.668 2°43.958 12.5 26 11.6 100040 47
2009-11-16 08:24:33 51°11.665 2°43.932 14.6 303 11.6 100040 47
2009-11-16 08:24:38 51°11.662 2°43.907 14 249 11.6 100040 47
2009-11-16 08:24:43 51°11.659 2°43.882 10.2 307 11.6 100040 47
2009-11-16 08:24:48 51°11.655 2°43.857 11.6 25 11.6 100030 47
2009-11-16 08:24:53 51°11.652 2°43.832 10 280 11.6 100030 47
2009-11-16 08:24:58 51°11.649 2°43.806 10.4 24 11.6 100040 48
2009-11-16 08:25:03 51°11.646 2°43.781 10.8 305 11.6 100040 48
2009-11-16 08:25:08 51°11.643 2°43.756 12.2 21 11.6 100050 45
2009-11-16 08:25:13 51°11.639 2°43.731 12 303 11.6 100050 45
2009-11-16 08:25:18 51°11.636 2°43.706 13 244 11.6 100060 47
2009-11-16 08:25:23 51°11.633 2°43.68 11.4 303 11.6 100060 47
2009-11-16 08:25:28 51°11.631 2°43.655 13.7 23 11.6 100030 46
2009-11-16 08:25:33 51°11.627 2°43.63 14 305 11.6 100030 46
2009-11-16 08:25:37 51°11.625 2°43.61 13.9 22 11.6 100030 47
2009-11-16 08:25:43 51°11.622 2°43.58 13.9 308 11.6 100030 47
2009-11-16 08:25:48 51°11.618 2°43.554 13.6 21 11.6 100030 45
2009-11-16 08:25:53 51°11.615 2°43.529 12.6 303 11.6 100030 45
2009-11-16 08:25:58 51°11.612 2°43.504 13.4 22 11.6 100030 46
2009-11-16 08:26:03 51°11.609 2°43.479 10.4 306 11.6 100030 46
2009-11-16 08:26:08 51°11.606 2°43.454 11.5 21 11.6 100030 46
2009-11-16 08:26:13 51°11.603 2°43.429 10.6 305 11.6 100030 46
2009-11-16 08:26:18 51°11.6 2°43.404 11.2 20 11.6 100030 46
2009-11-16 08:26:23 51°11.597 2°43.379 10.8 306 11.6 100030 46
2009-11-16 08:26:28 51°11.594 2°43.353 11.7 24 11.6 100050 47
2009-11-16 08:26:33 51°11.591 2°43.328 12.1 308 11.6 100050 47
2009-11-16 08:26:38 51°11.588 2°43.303 12.7 25 11.6 100040 46
2009-11-16 08:26:43 51°11.585 2°43.278 11.9 304 11.6 100040 46
2009-11-16 08:26:48 51°11.582 2°43.253 13.6 26 11.6 100030 47
2009-11-16 08:26:53 51°11.578 2°43.227 13.6 282 11.6 100030 47
2009-11-16 08:26:58 51°11.575 2°43.203 11.9 24 11.6 100040 46
2009-11-16 08:27:03 51°11.572 2°43.177 11.1 311 11.6 100040 46
2009-11-16 08:27:08 51°11.569 2°43.152 12.4 20 11.6 100040 47
2009-11-16 08:27:13 51°11.566 2°43.127 12.2 308 11.6 100040 47
2009-11-16 08:27:18 51°11.563 2°43.102 10.1 26 11.6 100030 48
2009-11-16 08:27:23 51°11.56 2°43.077 11 303 11.6 100030 48
2009-11-16 08:27:28 51°11.557 2°43.052 11.5 243 11.6 100040 45
2009-11-16 08:27:33 51°11.554 2°43.026 14 303 11.6 100040 45
2009-11-16 08:27:37 51°11.551 2°43.006 12.7 23 11.6 100040 46
2009-11-16 08:27:43 51°11.548 2°42.976 10.1 305 11.6 100040 46
2009-11-16 08:27:48 51°11.545 2°42.951 10.7 27 11.6 100030 46
2009-11-16 08:27:53 51°11.542 2°42.926 12.2 302 11.6 100030 46
2009-11-16 08:27:58 51°11.538 2°42.901 12 21 11.6 100040 45
2009-11-16 08:28:03 51°11.535 2°42.876 11.5 306 11.6 100040 45
2009-11-16 08:28:08 51°11.532 2°42.85 12.8 26 11.6 100040 46
2009-11-16 08:28:13 51°11.529 2°42.825 11.8 306 11.6 100040 46
2009-11-16 08:28:18 51°11.526 2°42.8 11.9 27 11.6 100050 47
2009-11-16 08:28:23 51°11.523 2°42.775 13.2 306 11.6 100050 47
2009-11-16 08:28:28 51°11.52 2°42.75 12.6 23 11.6 100030 46
2009-11-16 08:28:33 51°11.517 2°42.725 12 306 11.6 100030 46
2009-11-16 08:28:38 51°11.513 2°42.7 13.5 20 11.6 100030 46
2009-11-16 08:28:43 51°11.51 2°42.675 12.4 305 11.6 100030 46
2009-11-16 08:28:48 51°11.507 2°42.65 10.9 23 11.6 100030 46
2009-11-16 08:28:53 51°11.504 2°42.625 10.4 282 11.6 100030 46
2009-11-16 08:28:58 51°11.501 2°42.6 10.6 24 11.6 100030 47
2009-11-16 08:29:03 51°11.497 2°42.575 11.9 310 11.6 100030 47
2009-11-16 08:29:08 51°11.494 2°42.549 11.7 18 11.6 100030 47
2009-11-16 08:29:13 51°11.491 2°42.524 12.1 307 11.6 100030 47
2009-11-16 08:29:18 51°11.488 2°42.499 13.1 20 11.6 100020 47
2009-11-16 08:29:23 51°11.485 2°42.474 11.8 305 11.6 100020 47
2009-11-16 08:29:28 51°11.482 2°42.449 11.2 24 11.6 100030 47
2009-11-16 08:29:33 51°11.478 2°42.424 11.1 302 11.6 100030 47
2009-11-16 08:29:37 51°11.476 2°42.404 10.2 244 11.6 100030 48
2009-11-16 08:29:43 51°11.472 2°42.374 10.1 303 11.6 100030 48
2009-11-16 08:29:48 51°11.469 2°42.348 11.6 27 11.6 100030 45
2009-11-16 08:29:53 51°11.466 2°42.323 11.2 306 11.6 100030 45
2009-11-16 08:29:57 51°11.463 2°42.303 11.5 27 11.6 100030 46
2009-11-16 08:30:03 51°11.459 2°42.273 11.1 306 11.6 100030 46
2009-11-16 08:30:08 51°11.456 2°42.248 10.5 24 11.6 100030 45
2009-11-16 08:30:13 51°11.453 2°42.223 10.7 302 11.6 100030 45
2009-11-16 08:30:17 51°11.45 2°42.203 11 244 11.6 100020 46
2009-11-16 08:30:23 51°11.446 2°42.173 13.8 301 11.6 100020 46
2009-11-16 08:30:28 51°11.443 2°42.147 10.8 24 11.6 100020 47
2009-11-16 08:30:33 51°11.44 2°42.122 13.3 301 11.6 100020 47
2009-11-16 08:30:38 51°11.437 2°42.097 11.5 21 11.6 100020 46
2009-11-16 08:30:43 51°11.433 2°42.072 12.7 308 11.6 100020 46
2009-11-16 08:30:48 51°11.43 2°42.047 12.9 19 11.6 100020 48
2009-11-16 08:30:53 51°11.427 2°42.022 10.8 282 11.6 100020 48
2009-11-16 08:30:58 51°11.423 2°41.997 9.9 25 11.6 100020 48
2009-11-16 08:31:03 51°11.419 2°41.972 11.9 305 11.6 100020 48
2009-11-16 08:31:08 51°11.415 2°41.948 11.3 22 11.6 100010 45
2009-11-16 08:31:13 51°11.41 2°41.924 12.3 301 11.6 100010 45
2009-11-16 08:31:18 51°11.405 2°41.899 11.8 26 11.6 100020 48
2009-11-16 08:31:23 51°11.399 2°41.876 12.2 305 11.6 100020 48
2009-11-16 08:31:28 51°11.394 2°41.852 12.3 24 11.6 100020 48
2009-11-16 08:31:33 51°11.388 2°41.828 14.1 303 11.6 100020 48
2009-11-16 08:31:38 51°11.382 2°41.805 13.9 27 11.6 100020 46
2009-11-16 08:31:43 51°11.376 2°41.781 14.2 301 11.6 100020 46
2009-11-16 08:31:48 51°11.369 2°41.758 12.9 26 11.6 100010 46
2009-11-16 08:31:53 51°11.363 2°41.735 12.2 307 11.6 100010 46
2009-11-16 08:31:58 51°11.356 2°41.711 12.3 23 11.6 100000 47
2009-11-16 08:32:03 51°11.349 2°41.688 13.9 302 11.6 100000 47
2009-11-16 08:32:08 51°11.343 2°41.665 12.5 28 11.6 99990 46
2009-11-16 08:32:13 51°11.336 2°41.642 14.2 307 11.6 99990 46
2009-11-16 08:32:17 51°11.33 2°41.623 14.2 21 11.6 100010 46
2009-11-16 08:32:23 51°11.322 2°41.595 14.3 304 11.6 100010 46
2009-11-16 08:32:28 51°11.316 2°41.572 13 27 11.7 100000 46
2009-11-16 08:32:33 51°11.309 2°41.549 12.8 306 11.7 100000 46
2009-11-16 08:32:38 51°11.302 2°41.526 13.4 24 11.6 99990 47
2009-11-16 08:32:43 51°11.296 2°41.503 13.4 303 11.6 99990 47
2009-11-16 08:32:48 51°11.289 2°41.479 13.4 25 11.6 100000 46
2009-11-16 08:32:53 51°11.282 2°41.456 13.7 278 11.6 100000 46
2009-11-16 08:32:57 51°11.276 2°41.438 14.1 25 11.7 100010 47
2009-11-16 08:33:03 51°11.267 2°41.41 15 304 11.7 100010 47
2009-11-16 08:33:08 51°11.26 2°41.388 14.8 24 11.7 100000 46
2009-11-16 08:33:13 51°11.252 2°41.365 14.2 307 11.7 100000 46
2009-11-16 08:33:18 51°11.244 2°41.343 13.8 26 11.7 100000 47
2009-11-16 08:33:23 51°11.236 2°41.32 13.9 306 11.7 100000 47
2009-11-16 08:33:28 51°11.228 2°41.298 13.4 24 11.7 100000 47
2009-11-16 08:33:33 51°11.219 2°41.276 12.7 302 11.7 100000 47
2009-11-16 08:33:38 51°11.21 2°41.253 12.7 21 11.7 100000 47
2009-11-16 08:33:43 51°11.202 2°41.231 15.5 305 11.7 100000 47
2009-11-16 08:33:48 51°11.193 2°41.209 14.1 23 11.7 100000 45
2009-11-16 08:33:53 51°11.184 2°41.187 13 309 11.7 100000 45
2009-11-16 08:33:58 51°11.176 2°41.164 15.8 22 11.7 99990 45
2009-11-16 08:34:03 51°11.167 2°41.142 13.1 308 11.7 99990 45
2009-11-16 08:34:08 51°11.158 2°41.119 14 26 11.7 100000 46
2009-11-16 08:34:13 51°11.15 2°41.097 13.5 308 11.7 100000 46
2009-11-16 08:34:17 51°11.143 2°41.079 13.4 20 11.7 100000 47
2009-11-16 08:34:23 51°11.133 2°41.052 14 302 11.7 100000 47
2009-11-16 08:34:28 51°11.125 2°41.029 15.7 24 11.7 99990 47
2009-11-16 08:34:33 51°11.116 2°41.007 13.6 309 11.7 99990 47
2009-11-16 08:34:37 51°11.11 2°40.989 13.8 21 11.7 99990 45
2009-11-16 08:34:43 51°11.1 2°40.961 14.4 309 11.7 99990 45
2009-11-16 08:34:48 51°11.091 2°40.939 13.8 26 11.7 99990 46
2009-11-16 08:34:53 51°11.083 2°40.916 13.6 284 11.7 99990 46
2009-11-16 08:34:58 51°11.075 2°40.893 13.8 23 11.7 99990 47
2009-11-16 08:35:03 51°11.066 2°40.871 13.8 307 11.7 99990 47
2009-11-16 08:35:08 51°11.057 2°40.849 14.4 24 11.7 100000 47
2009-11-16 08:35:13 51°11.048 2°40.827 14.3 305 11.7 100000 47
2009-11-16 08:35:18 51°11.039 2°40.806 14.3 22 11.7 100000 46
2009-11-16 08:35:23 51°11.029 2°40.785 13.9 305 11.7 100000 46
2009-11-16 08:35:28 51°11.02 2°40.763 14.2 25 11.7 99990 46
2009-11-16 08:35:33 51°11.01 2°40.742 15.1 301 11.7 99990 46
2009-11-16 08:35:38 51°11.001 2°40.721 13.6 22 11.7 100000 47
2009-11-16 08:35:43 51°10.991 2°40.7 12.3 307 11.7 100000 47
2009-11-16 08:35:48 51°10.98 2°40.68 13.6 26 11.7 100000 46
2009-11-16 08:35:53 51°10.97 2°40.66 13.4 303 11.7 100000 46
2009-11-16 08:35:58 51°10.959 2°40.64 13.8 25 11.7 100000 46
2009-11-16 08:36:03 51°10.948 2°40.621 13.6 306 11.7 100000 46
2009-11-16 08:36:08 51°10.937 2°40.602 12.3 25 11.7 100000 46
2009-11-16 08:36:13 51°10.926 2°40.584 13.8 307 11.7 100000 46
2009-11-16 08:36:18 51°10.914 2°40.565 13.7 27 11.7 100000 47
2009-11-16 08:36:23 51°10.903 2°40.547 14.4 309 11.7 100000 47
2009-11-16 08:36:28 51°10.891 2°40.529 13.2 24 11.7 100000 46
2009-11-16 08:36:33 51°10.879 2°40.51 14.6 302 11.7 100000 46
2009-11-16 08:36:38 51°10.868 2°40.492 15.4 25 11.7 100000 46
2009-11-16 08:36:43 51°10.856 2°40.474 14.9 303 11.7 100000 46
2009-11-16 08:36:48 51°10.844 2°40.457 14.1 24 11.7 100000 47
2009-11-16 08:36:53 51°10.831 2°40.441 12.9 283 11.7 100000 47
2009-11-16 08:36:58 51°10.819 2°40.424 14.8 23 11.7 100000 47
2009-11-16 08:37:03 51°10.806 2°40.408 13.9 307 11.7 100000 47
2009-11-16 08:37:08 51°10.794 2°40.391 14.8 25 11.7 100000 47
2009-11-16 08:37:13 51°10.781 2°40.376 15 308 11.7 100000 47
2009-11-16 08:37:18 51°10.768 2°40.36 13.7 315 11.7 100000 47
2009-11-16 08:37:23 51°10.756 2°40.344 12.6 307 11.7 100000 47
2009-11-16 08:37:28 51°10.743 2°40.329 14 316 11.7 100000 47
2009-11-16 08:37:33 51°10.73 2°40.314 14.3 303 11.7 100000 47
2009-11-16 08:37:38 51°10.716 2°40.299 13.9 318 11.7 100000 46
2009-11-16 08:37:43 51°10.703 2°40.284 15.5 307 11.7 100000 46
2009-11-16 08:37:48 51°10.69 2°40.271 14 317 11.7 99990 48
2009-11-16 08:37:53 51°10.676 2°40.257 13.9 309 11.7 99990 48
2009-11-16 08:37:58 51°10.662 2°40.246 14.9 321 11.7 100000 47
2009-11-16 08:38:03 51°10.648 2°40.233 14.9 307 11.7 100000 47
2009-11-16 08:38:08 51°10.634 2°40.223 15.1 322 11.7 100000 47
2009-11-16 08:38:13 51°10.619 2°40.212 15.4 305 11.7 100000 47
2009-11-16 08:38:18 51°10.605 2°40.202 15.1 322 11.7 100010 46
2009-11-16 08:38:23 51°10.59 2°40.192 14.6 303 11.7 100010 46
2009-11-16 08:38:28 51°10.575 2°40.182 14 319 11.7 100010 46
2009-11-16 08:38:33 51°10.561 2°40.173 15.6 307 11.7 100010 46
2009-11-16 08:38:37 51°10.549 2°40.166 15 320 11.7 100010 46
2009-11-16 08:38:43 51°10.531 2°40.154 14.2 304 11.7 100010 46
2009-11-16 08:38:48 51°10.516 2°40.145 14.8 323 11.7 100010 46
2009-11-16 08:38:53 51°10.501 2°40.136 13.8 286 11.7 100010 46
2009-11-16 08:38:58 51°10.486 2°40.127 13.4 321 11.8 100010 47
2009-11-16 08:39:03 51°10.471 2°40.118 13.4 308 11.8 100010 47
2009-11-16 08:39:08 51°10.457 2°40.109 13.9 321 11.7 100000 45
2009-11-16 08:39:13 51°10.442 2°40.1 14.2 304 11.7 100000 45
2009-11-16 08:39:18 51°10.427 2°40.09 12.9 321 11.8 100020 47
2009-11-16 08:39:23 51°10.412 2°40.081 15.4 305 11.8 100020 47
2009-11-16 08:39:28 51°10.397 2°40.072 15 323 11.8 100020 47
2009-11-16 08:39:33 51°10.382 2°40.065 14.2 324 11.8 100020 47
2009-11-16 08:39:37 51°10.37 2°40.06 12.2 327 11.8 100010 46
2009-11-16 08:39:43 51°10.352 2°40.052 15.7 326 11.8 100010 46
2009-11-16 08:39:48 51°10.337 2°40.047 14.3 328 11.8 100020 47
2009-11-16 08:39:53 51°10.321 2°40.042 14.9 325 11.8 100020 47
2009-11-16 08:39:58 51°10.306 2°40.038 14.8 326 11.8 100020 46
2009-11-16 08:40:03 51°10.291 2°40.035 14.4 302 11.8 100020 46
2009-11-16 08:40:08 51°10.275 2°40.032 14.7 327 11.8 100040 47
2009-11-16 08:40:13 51°10.26 2°40.032 15.2 329 11.8 100040 47
2009-11-16 08:40:18 51°10.245 2°40.031 15.3 330 11.8 100030 47
2009-11-16 08:40:23 51°10.229 2°40.032 13.8 329 11.8 100030 47
2009-11-16 08:40:28 51°10.214 2°40.034 14.5 331 11.8 100010 46
2009-11-16 08:40:33 51°10.198 2°40.036 16 334 11.8 100010 46
2009-11-16 08:40:38 51°10.183 2°40.038 15.2 332 11.8 100030 47
2009-11-16 08:40:43 51°10.169 2°40.041 12.6 333 11.8 100030 47
2009-11-16 08:40:48 51°10.156 2°40.044 13.5 332 11.8 100030 46
2009-11-16 08:40:53 51°10.144 2°40.049 13.1 278 11.8 100030 46
2009-11-16 08:40:58 51°10.134 2°40.055 12 340 11.8 100040 47
2009-11-16 08:41:03 51°10.125 2°40.063 12.2 347 11.8 100040 47
2009-11-16 08:41:08 51°10.117 2°40.071 11.5 346 11.8 100040 45
2009-11-16 08:41:13 51°10.111 2°40.08 10.7 349 11.8 100040 45
2009-11-16 08:41:17 51°10.107 2°40.088 11.5 355 11.8 100040 46
2009-11-16 08:41:23 51°10.101 2°40.101 11.6 356 11.8 100040 46
2009-11-16 08:41:28 51°10.098 2°40.111 10.8 358 11.7 100030 45
2009-11-16 08:41:33 51°10.094 2°40.121 10.2 2 11.7 100030 45
2009-11-16 08:41:38 51°10.093 2°40.131 7.8 5 11.8 100030 47
2009-11-16 08:41:43 51°10.091 2°40.141 9.4 7 11.8 100030 47
2009-11-16 08:41:48 51°10.091 2°40.151 9.1 7 11.7 100030 44
2009-11-16 08:41:53 51°10.091 2°40.161 10.2 8 11.7 100030 44
2009-11-16 08:41:58 51°10.092 2°40.17 11.2 11 11.8 100020 45
2009-11-16 08:42:03 51°10.092 2°40.18 9.8 11 11.8 100020 45
2009-11-16 08:42:08 51°10.094 2°40.19 11.9 13 11.8 100020 45
2009-11-16 08:42:13 51°10.095 2°40.2 11.5 14 11.8 100020 45
2009-11-16 08:42:18 51°10.096 2°40.209 9.6 15 11.7 100020 46
2009-11-16 08:42:23 51°10.097 2°40.219 10.7 13 11.7 100020 46
2009-11-16 08:42:28 51°10.097 2°40.228 8.9 7 11.7 100020 45
2009-11-16 08:42:33 51°10.097 2°40.237 6.7 3 11.7 100020 45
2009-11-16 08:42:38 51°10.096 2°40.245 7.5 2 11.7 100020 48
2009-11-16 08:42:43 51°10.095 2°40.253 10.1 359 11.7 100020 48
2009-11-16 08:42:48 51°10.094 2°40.26 10.7 356 11.8 100020 47
2009-11-16 08:42:53 51°10.091 2°40.266 10.5 359 11.8 100020 47
2009-11-16 08:42:58 51°10.089 2°40.272 9.8 353 11.8 100020 48
2009-11-16 08:43:03 51°10.086 2°40.278 9.7 354 11.8 100020 48
2009-11-16 08:43:08 51°10.084 2°40.284 10.1 351 11.8 100020 46
2009-11-16 08:43:13 51°10.081 2°40.289 9.4 348 11.8 100020 46
2009-11-16 08:43:17 51°10.079 2°40.292 11.5 347 11.8 100020 47
2009-11-16 08:43:23 51°10.075 2°40.297 10.9 345 11.8 100020 47
2009-11-16 08:43:28 51°10.071 2°40.301 8.8 341 11.7 100020 48
2009-11-16 08:43:33 51°10.068 2°40.305 9 338 11.7 100020 48
2009-11-16 08:43:38 51°10.065 2°40.307 9.4 339 11.7 100020 47
2009-11-16 08:43:43 51°10.061 2°40.31 9.2 335 11.7 100020 47
2009-11-16 08:43:48 51°10.057 2°40.311 10 336 11.7 100020 46
2009-11-16 08:43:53 51°10.053 2°40.312 9.9 331 11.7 100020 46
2009-11-16 08:43:57 51°10.051 2°40.313 10.2 331 11.7 100020 46
2009-11-16 08:44:03 51°10.046 2°40.313 9.5 327 11.7 100020 46
2009-11-16 08:44:08 51°10.043 2°40.313 8.5 325 11.8 100020 47
2009-11-16 08:44:13 51°10.039 2°40.313 7.8 302 11.8 100020 47
2009-11-16 08:44:18 51°10.035 2°40.311 8 319 11.8 100010 48
2009-11-16 08:44:23 51°10.032 2°40.31 8.5 307 11.8 100010 48
2009-11-16 08:44:28 51°10.028 2°40.308 9 21 11.8 100030 47
2009-11-16 08:44:33 51°10.025 2°40.305 9 308 11.8 100030 47
2009-11-16 08:44:38 51°10.021 2°40.302 8.9 25 11.7 100020 48
2009-11-16 08:44:43 51°10.018 2°40.298 8.8 306 11.7 100020 48
2009-11-16 08:44:48 51°10.015 2°40.294 8.1 26 11.8 100020 45
2009-11-16 08:44:53 51°10.013 2°40.29 8.5 280 11.8 100020 45
2009-11-16 08:44:58 51°10.011 2°40.286 6.8 22 11.8 100010 47
2009-11-16 08:45:03 51°10.009 2°40.282 8.1 308 11.8 100010 47
2009-11-16 08:45:08 51°10.007 2°40.278 8.4 26 11.7 100020 48
2009-11-16 08:45:13 51°10.005 2°40.274 9.2 305 11.7 100020 48
2009-11-16 08:45:18 51°10.004 2°40.27 8.5 22 11.8 100020 46
2009-11-16 08:45:23 51°10.003 2°40.266 9.6 302 11.8 100020 46
2009-11-16 08:45:28 51°10.002 2°40.262 9 25 11.8 100020 45
2009-11-16 08:45:33 51°10.002 2°40.259 9.6 307 11.8 100020 45
2009-11-16 08:45:37 51°10.001 2°40.256 9.4 248 11.8 100030 46
2009-11-16 08:45:43 51°10.001 2°40.253 10.2 304 11.8 100030 46
2009-11-16 08:45:48 51°10.001 2°40.25 10.2 254 11.8 100030 45
2009-11-16 08:45:53 51°10.001 2°40.247 9.4 303 11.8 100030 45
2009-11-16 08:45:58 51°10.001 2°40.245 9.4 258 11.8 100030 47
2009-11-16 08:46:03 51°10.001 2°40.244 8.3 308 11.8 100030 47
2009-11-16 08:46:08 51°10.001 2°40.242 7.3 262 11.7 100040 46
2009-11-16 08:46:13 51°10.001 2°40.241 4.8 302 11.7 100040 46
2009-11-16 08:46:18 51°10.001 2°40.24 6 263 11.8 100040 45
2009-11-16 08:46:23 51°10.001 2°40.24 5.7 302 11.8 100040 45
2009-11-16 08:46:28 51°10.002 2°40.239 5.3 263 11.7 100050 48
2009-11-16 08:46:33 51°10.002 2°40.239 5.2 304 11.7 100050 48
2009-11-16 08:46:38 51°10.002 2°40.238 6.1 268 11.8 100050 45
2009-11-16 08:46:43 51°10.002 2°40.237 6.2 300 11.8 100050 45
2009-11-16 08:46:48 51°10.003 2°40.236 6 267 11.7 100070 48
2009-11-16 08:46:53 51°10.003 2°40.236 6.1 280 11.7 100070 48
2009-11-16 08:46:58 51°10.004 2°40.235 5.9 267 11.7 100060 48
2009-11-16 08:47:03 51°10.004 2°40.234 5.8 303 11.7 100060 48
2009-11-16 08:47:09 51°10.004 2°40.233 7.1 269 11.8 100050 46
2009-11-16 08:47:14 51°10.005 2°40.232 7.9 302 11.8 100050 46
2009-11-16 08:47:20 51°10.005 2°40.231 7.2 267 11.8 100050 49
2009-11-16 08:47:25 51°10.005 2°40.23 7.1 308 11.8 100050 49
2009-11-16 08:47:30 51°10.006 2°40.229 7.1 270 11.8 100050 48
2009-11-16 08:47:36 51°10.006 2°40.227 7.1 59 11.8 100050 48
2009-11-16 08:47:40 51°10.007 2°40.227 5.5 270 11.8 100050 46
2009-11-16 08:47:45 51°10.007 2°40.226 6.6 305 11.8 100050 46
2009-11-16 08:47:50 51°10.008 2°40.225 6.2 270 11.7 100060 46
2009-11-16 08:47:55 51°10.008 2°40.224 7.1 303 11.7 100060 46
2009-11-16 08:48:00 51°10.008 2°40.223 6.5 269 11.8 100050 52
2009-11-16 08:48:05 51°10.008 2°40.222 5.9 306 11.8 100050 52
2009-11-16 08:48:09 51°10.009 2°40.222 6.3 265 11.7 100050 45
2009-11-16 08:48:14 51°10.009 2°40.221 6.3 303 11.7 100050 45
2009-11-16 08:48:19 51°10.01 2°40.22 6.5 27 11.8 100050 44
2009-11-16 08:48:24 51°10.01 2°40.219 6.3 305 11.8 100050 44
2009-11-16 08:48:29 51°10.01 2°40.218 6.2 270 11.8 100050 45
2009-11-16 08:48:33 51°10.011 2°40.217 5.6 304 11.8 100050 45
2009-11-16 08:48:38 51°10.011 2°40.216 5.4 269 11.8 100050 47
2009-11-16 08:48:43 51°10.012 2°40.215 5.9 313 11.8 100050 47
2009-11-16 08:48:48 51°10.012 2°40.214 6.3 268 11.8 100040 45
2009-11-16 08:48:53 51°10.012 2°40.213 6 281 11.8 100040 45
2009-11-16 08:48:58 51°10.013 2°40.212 6.2 268 11.8 100050 45
2009-11-16 08:49:03 51°10.013 2°40.212 5.6 303 11.8 100050 45
2009-11-16 08:49:08 51°10.014 2°40.211 6 255 11.8 100050 47
2009-11-16 08:49:13 51°10.014 2°40.21 6.3 304 11.8 100050 47
2009-11-16 08:49:18 51°10.014 2°40.209 7.5 270 11.8 100050 45
2009-11-16 08:49:23 51°10.015 2°40.208 6.5 308 11.8 100050 45
2009-11-16 08:49:28 51°10.015 2°40.207 6.2 267 11.8 100050 44
2009-11-16 08:49:33 51°10.016 2°40.206 4.6 302 11.8 100050 44
2009-11-16 08:49:38 51°10.016 2°40.205 7.2 268 11.8 100040 47
2009-11-16 08:49:43 51°10.017 2°40.204 5.4 310 11.8 100040 47
2009-11-16 08:49:48 51°10.017 2°40.203 5 267 11.8 100050 45
2009-11-16 08:49:53 51°10.017 2°40.202 5.3 307 11.8 100050 45
2009-11-16 08:49:57 51°10.018 2°40.202 3.9 265 11.8 100040 45
2009-11-16 08:50:03 51°10.018 2°40.2 5.7 306 11.8 100040 45
2009-11-16 08:50:08 51°10.019 2°40.2 5.6 270 11.8 100050 45
2009-11-16 08:50:13 51°10.019 2°40.199 5.6 308 11.8 100050 45
2009-11-16 08:50:17 51°10.019 2°40.198 4.9 262 11.8 100040 49
2009-11-16 08:50:23 51°10.02 2°40.197 4 308 11.8 100040 49
2009-11-16 08:50:28 51°10.02 2°40.196 3.3 263 11.8 100040 44
2009-11-16 08:50:33 51°10.021 2°40.195 4 268 11.8 100040 44
2009-11-16 08:50:38 51°10.021 2°40.194 4.7 269 11.8 100050 48
2009-11-16 08:50:43 51°10.021 2°40.193 3.7 263 11.8 100050 48
2009-11-16 08:50:48 51°10.022 2°40.192 3.7 264 11.8 100040 49
2009-11-16 08:50:53 51°10.022 2°40.191 3.5 265 11.8 100040 49
2009-11-16 08:50:58 51°10.022 2°40.191 3.9 265 11.8 100030 44
2009-11-16 08:51:03 51°10.023 2°40.19 5.4 267 11.8 100030 44
2009-11-16 08:51:08 51°10.023 2°40.189 3.7 264 11.8 100050 44
2009-11-16 08:51:13 51°10.024 2°40.188 3.3 264 11.8 100050 44
2009-11-16 08:51:18 51°10.024 2°40.187 3.5 263 11.8 100040 45
2009-11-16 08:51:23 51°10.024 2°40.186 3.8 266 11.8 100040 45
2009-11-16 08:51:28 51°10.025 2°40.185 3 264 11.8 100040 44
2009-11-16 08:51:33 51°10.025 2°40.185 3.9 266 11.8 100040 44
2009-11-16 08:51:38 51°10.026 2°40.184 3.9 265 11.8 100040 45
2009-11-16 08:51:43 51°10.026 2°40.183 5.2 266 11.8 100040 45
2009-11-16 08:51:48 51°10.026 2°40.182 3.5 268 11.8 100030 48
2009-11-16 08:51:53 51°10.027 2°40.181 3.8 261 11.8 100030 48
2009-11-16 08:51:58 51°10.027 2°40.18 3.8 262 11.8 100040 49
2009-11-16 08:52:03 51°10.027 2°40.18 3.3 261 11.8 100040 49
2009-11-16 08:52:08 51°10.028 2°40.179 6.4 261 11.8 100040 49
2009-11-16 08:52:13 51°10.028 2°40.178 4.3 262 11.8 100040 49
2009-11-16 08:52:17 51°10.029 2°40.177 5.5 262 11.8 100050 44
2009-11-16 08:52:23 51°10.029 2°40.176 7 261 11.8 100050 44
2009-11-16 08:52:28 51°10.029 2°40.176 4.5 261 11.8 100040 47
2009-11-16 08:52:33 51°10.03 2°40.175 6 259 11.8 100040 47
2009-11-16 08:52:38 51°10.03 2°40.174 6.8 259 11.8 100040 46
2009-11-16 08:52:43 51°10.031 2°40.173 5.1 262 11.8 100040 46
2009-11-16 08:52:48 51°10.031 2°40.173 4.4 262 11.8 100050 45
2009-11-16 08:52:53 51°10.032 2°40.172 3.7 264 11.8 100050 45
2009-11-16 08:52:58 51°10.032 2°40.171 4.1 263 11.8 100050 47
2009-11-16 08:53:03 51°10.032 2°40.171 5.7 263 11.8 100050 47
2009-11-16 08:53:08 51°10.033 2°40.17 4.2 262 11.8 100050 47
2009-11-16 08:53:13 51°10.033 2°40.169 6 262 11.8 100050 47
2009-11-16 08:53:18 51°10.034 2°40.169 4.2 262 11.8 100040 45
2009-11-16 08:53:23 51°10.034 2°40.168 3.3 262 11.8 100040 45
2009-11-16 08:53:28 51°10.035 2°40.168 4.3 261 11.8 100060 45
2009-11-16 08:53:33 51°10.035 2°40.167 6.6 262 11.8 100060 45
2009-11-16 08:53:38 51°10.036 2°40.166 7 262 11.8 100050 49
2009-11-16 08:53:43 51°10.036 2°40.166 5.5 262 11.8 100050 49
2009-11-16 08:53:48 51°10.037 2°40.165 4.9 263 11.8 100060 46
2009-11-16 08:53:53 51°10.038 2°40.165 4.3 263 11.8 100060 46
2009-11-16 08:53:58 51°10.038 2°40.164 4.5 266 11.8 100060 49
2009-11-16 08:54:03 51°10.039 2°40.164 4.6 262 11.8 100060 49
2009-11-16 08:54:08 51°10.039 2°40.163 3.7 265 11.8 100060 44
2009-11-16 08:54:13 51°10.039 2°40.163 4.5 261 11.8 100060 44
2009-11-16 08:54:17 51°10.04 2°40.162 3.4 263 11.8 100060 44
2009-11-16 08:54:23 51°10.04 2°40.162 3.5 264 11.8 100060 44
2009-11-16 08:54:28 51°10.041 2°40.161 4.1 265 11.8 100050 44
2009-11-16 08:54:33 51°10.041 2°40.161 4.4 265 11.8 100050 44
2009-11-16 08:54:38 51°10.042 2°40.16 3.5 265 11.8 100060 45
2009-11-16 08:54:43 51°10.042 2°40.16 3.4 265 11.8 100060 45
2009-11-16 08:54:48 51°10.043 2°40.159 4.4 270 11.8 100050 49
2009-11-16 08:54:53 51°10.043 2°40.159 3.3 262 11.8 100050 49
2009-11-16 08:54:57 51°10.044 2°40.158 3.7 264 11.8 100040 45
2009-11-16 08:55:03 51°10.044 2°40.158 3.1 265 11.8 100040 45
2009-11-16 08:55:08 51°10.045 2°40.157 3.9 263 11.8 100060 44
2009-11-16 08:55:13 51°10.046 2°40.157 5 267 11.8 100060 44
2009-11-16 08:55:18 51°10.046 2°40.156 3.3 265 11.8 100050 47
2009-11-16 08:55:23 51°10.047 2°40.156 4 267 11.8 100050 47
2009-11-16 08:55:28 51°10.047 2°40.155 2.6 266 11.8 100050 49
2009-11-16 08:55:33 51°10.047 2°40.155 2.8 266 11.8 100050 49
2009-11-16 08:55:38 51°10.048 2°40.154 3.1 262 11.8 100060 44
2009-11-16 08:55:43 51°10.048 2°40.154 3.5 266 11.8 100060 44
2009-11-16 08:55:48 51°10.049 2°40.153 3.6 267 11.8 100050 49
2009-11-16 08:55:53 51°10.049 2°40.153 4.3 261 11.8 100050 49
2009-11-16 08:55:58 51°10.05 2°40.152 3.3 263 11.8 100060 46
2009-11-16 08:56:03 51°10.05 2°40.152 3.1 265 11.8 100060 46
2009-11-16 08:56:08 51°10.051 2°40.152 4.5 264 11.8 100060 49
2009-11-16 08:56:13 51°10.051 2°40.151 3.7 266 11.8 100060 49
2009-11-16 08:56:18 51°10.052 2°40.151 3.7 265 11.8 100070 48
2009-11-16 08:56:23 51°10.052 2°40.15 2.5 266 11.8 100070 48
2009-11-16 08:56:28 51°10.053 2°40.15 2.6 264 11.9 100050 49
2009-11-16 08:56:33 51°10.053 2°40.149 3.3 265 11.9 100050 49
2009-11-16 08:56:38 51°10.053 2°40.149 4 264 11.9 100060 49
2009-11-16 08:56:43 51°10.054 2°40.149 4.7 262 11.9 100060 49
2009-11-16 08:56:48 51°10.054 2°40.148 3.1 264 11.9 100050 44
2009-11-16 08:56:53 51°10.055 2°40.148 3.7 263 11.9 100050 44
2009-11-16 08:56:58 51°10.055 2°40.148 3.6 263 11.9 100050 49
2009-11-16 08:57:03 51°10.056 2°40.147 4.1 264 11.9 100050 49
2009-11-16 08:57:08 51°10.056 2°40.147 3.3 264 11.9 100050 49
2009-11-16 08:57:13 51°10.057 2°40.146 4 262 11.9 100050 49
2009-11-16 08:57:18 51°10.057 2°40.146 3.8 264 11.9 100050 46
2009-11-16 08:57:23 51°10.058 2°40.146 3.3 265 11.9 100050 46
2009-11-16 08:57:28 51°10.058 2°40.146 3.4 269 11.8 100050 48
2009-11-16 08:57:33 51°10.058 2°40.145 3.3 264 11.8 100050 48
2009-11-16 08:57:38 51°10.059 2°40.145 4.4 264 11.8 100050 44
2009-11-16 08:57:43 51°10.059 2°40.145 3.1 263 11.8 100050 44
2009-11-16 08:57:48 51°10.06 2°40.144 4.3 268 11.9 100050 48
2009-11-16 08:57:53 51°10.06 2°40.144 2.9 269 11.9 100050 48
2009-11-16 08:57:58 51°10.061 2°40.144 4.3 267 11.9 100060 48
2009-11-16 08:58:03 51°10.061 2°40.143 4.1 266 11.9 100060 48
2009-11-16 08:58:08 51°10.061 2°40.143 3.5 267 11.9 100060 49
2009-11-16 08:58:13 51°10.062 2°40.143 3 268 11.9 100060 49
2009-11-16 08:58:18 51°10.062 2°40.142 3.1 264 11.9 100060 44
2009-11-16 08:58:23 51°10.063 2°40.142 3.2 269 11.9 100060 44
2009-11-16 08:58:28 51°10.063 2°40.142 4.2 266 11.9 100050 44
2009-11-16 08:58:33 51°10.063 2°40.142 3.5 263 11.9 100050 44
2009-11-16 08:58:38 51°10.064 2°40.141 3.8 263 11.9 100050 44
2009-11-16 08:58:43 51°10.064 2°40.141 3.6 263 11.9 100050 44
2009-11-16 08:58:48 51°10.065 2°40.141 5.4 263 11.9 100060 49
2009-11-16 08:58:53 51°10.065 2°40.14 3.8 266 11.9 100060 49
2009-11-16 08:58:57 51°10.065 2°40.14 2.9 264 11.9 100070 49
2009-11-16 08:59:03 51°10.066 2°40.14 2.8 265 11.9 100070 49
2009-11-16 08:59:08 51°10.067 2°40.139 3.4 262 11.9 100060 47
2009-11-16 08:59:13 51°10.067 2°40.139 3.3 268 11.9 100060 47
2009-11-16 08:59:18 51°10.068 2°40.139 5.3 269 11.9 100040 45
2009-11-16 08:59:23 51°10.068 2°40.138 5.2 262 11.9 100040 45
2009-11-16 08:59:28 51°10.068 2°40.138 3.9 261 11.9 100050 49
2009-11-16 08:59:33 51°10.069 2°40.138 3.6 264 11.9 100050 49
2009-11-16 08:59:38 51°10.069 2°40.137 4.8 266 11.9 100050 44
2009-11-16 08:59:43 51°10.07 2°40.137 4.4 266 11.9 100050 44
2009-11-16 08:59:48 51°10.07 2°40.137 4.6 265 11.9 100050 45
2009-11-16 08:59:53 51°10.071 2°40.136 3.4 263 11.9 100050 45
2009-11-16 08:59:58 51°10.071 2°40.136 5.3 262 11.9 100050 45
2009-11-16 09:00:03 51°10.072 2°40.136 3.9 261 11.9 100050 45
2009-11-16 09:00:08 51°10.073 2°40.135 3.8 263 11.9 100050 44